Content
SEND FEEDBACK

Daily
Averages
Monthly
Summary
United States of America

FOWLER, ILLINOIS


Home > North America > United States > Illinois
Elevation: 746 feet     Latitude: 39 55N     Longitude: 091 11W

WEATHER
 
SELECT A DAY
Number of Records: 203,124;   Date Range: 1/1/95 - 9/21/14
 
SHARE

PRINT THIS DATA

[ ← Previous Day ]
WEATHER ALMANAC - FEBRUARY 13, 2013
[ Next Day → ]
[ °C ]   °F
Weather ElementAverageHighLow
Temperature36.5 °F46.9 °F (1:54 pm)26.1 °F (6:54 am)
Dewpoint27.1 °F30.9 °F (11:54 pm)21.9 °F (6:54 am)
Humidity70.1 %85 % (2:54 am)51 % (4:54 pm)
Barometer29.84 in29.92 in (1:54 am)29.78 in (11:54 pm)
Wind Speed8.6 mph13.8 mph (1:54 pm)
Wind Gust24.2 mph (2:54 pm)
Weather ElementAverage
Visibility9.6 mi
Wind DirectionWSW (233.5 °)

Weather ElementTotal
Precipitation---
Heating Degree Days28.5 (Base 65)
Averaged from 23 records on February 13, 2013
WEATHER CONDITIONS BREAKOUT
WIND DIRECTION BREAKOUT
WEATHER BY HOUR - FEBRUARY 13, 2013
[ °C ]   °F
Local TimeTemperatureDewpointHumidityBarometerVisibilityWind DirectionWind SpeedGust SpeedPrecipitationEventsConditions
1:54 AM30.0 °F25.0 °F82 %29.92 in10.0 miWSW (240°)3.5 mphClear
2:54 AM28.0 °F24.1 °F85 %29.90 in9.0 miSSW (210°)5.8 mphClear
3:54 AM28.0 °F24.1 °F85 %29.88 in9.0 miSW (220°)5.8 mphClear
4:54 AM27.0 °F23.0 °F85 %29.87 in9.0 miSSW (210°)6.9 mphClear
5:54 AM28.0 °F23.0 °F81 %29.86 in9.0 miSSW (200°)6.9 mphClear
6:54 AM26.1 °F21.9 °F84 %29.87 in8.0 miSW (230°)5.8 mphClear
7:54 AM30.0 °F25.0 °F82 %29.86 in7.0 miWSW (240°)6.9 mphClear
8:54 AM33.1 °F26.1 °F75 %29.86 in10.0 miWest (260°)8.1 mphClear
9:54 AM36.0 °F26.1 °F67 %29.86 in10.0 miWest (270°)9.2 mphClear
10:54 AM39.0 °F28.0 °F65 %29.86 in10.0 miWest (260°)9.2 mphClear
11:54 AM42.1 °F28.0 °F58 %29.84 in10.0 miWSW (240°)11.5 mphClear
12:54 PM44.1 °F28.0 °F53 %29.82 in10.0 miWSW (250°)10.4 mphClear
1:54 PM46.9 °F30.0 °F52 %29.81 in10.0 miWNW (290°)13.8 mph19.6 mphClear
2:54 PM46.9 °F30.0 °F52 %29.81 in10.0 miWest (270°)12.7 mph24.2 mphClear
3:54 PM46.9 °F30.0 °F52 %29.81 in10.0 miWest (260°)11.5 mphClear
4:54 PM46.0 °F28.9 °F51 %29.81 in10.0 miWest (260°)12.7 mphClear
5:54 PM42.1 °F28.9 °F60 %29.82 in10.0 miWSW (240°)4.6 mphClear
6:54 PM37.0 °F28.9 °F73 %29.82 in10.0 miSSW (210°)6.9 mphClear
7:54 PM36.0 °F28.0 °F73 %29.82 in10.0 miSSW (210°)6.9 mphClear
8:54 PM34.0 °F28.0 °F79 %29.82 in10.0 miSSW (200°)6.9 mphClear
9:54 PM37.0 °F28.9 °F73 %29.81 in10.0 miSouth (190°)9.2 mphClear
10:54 PM37.0 °F28.9 °F73 %29.80 in10.0 miSSW (200°)11.5 mphClear
11:54 PM39.0 °F30.9 °F73 %29.78 in10.0 miSSW (210°)11.5 mphClear
Hourly data recorded from KUIN, located miles away from Fowler, Illinois







STORIES FROM OUR PARTNERS